Time,TemperatureF,DewpointF,PressureIn,WindDirection,WindDirectionDegrees,WindSpeedMPH,WindSpeedGustMPH,Humidity,HourlyPrecipIn,Conditions,Clouds,dailyrainin,SoftwareType,DateUTC
2013-06-10 00:01:00,74.3,66.6,29.89,East,98,0.0,0.0,77,0.00,,,0.00,VWS V14.01,2013-06-10 05:01:00,
2013-06-10 00:06:00,74.2,66.5,29.89,East,98,0.0,0.0,77,0.00,,,0.00,VWS V14.01,2013-06-10 05:06:00,
2013-06-10 00:11:00,74.1,66.8,29.89,East,98,0.0,0.0,78,0.00,,,0.00,VWS V14.01,2013-06-10 05:11:00,
2013-06-10 00:16:00,74.0,67.1,29.89,East,98,0.0,0.0,79,0.00,,,0.00,VWS V14.01,2013-06-10 05:16:00,
2013-06-10 00:21:00,73.8,66.9,29.89,East,98,0.0,0.0,79,0.00,,,0.00,VWS V14.01,2013-06-10 05:21:00,
2013-06-10 00:26:00,73.6,66.7,29.89,East,98,0.0,0.0,79,0.00,,,0.00,VWS V14.01,2013-06-10 05:26:00,
2013-06-10 00:31:00,73.4,66.5,29.89,East,98,0.0,0.0,79,0.00,,,0.00,VWS V14.01,2013-06-10 05:31:00,
2013-06-10 00:36:00,73.3,66.8,29.89,East,98,0.0,0.0,80,0.00,,,0.00,VWS V14.01,2013-06-10 05:36:00,
2013-06-10 00:41:00,73.1,66.6,29.89,East,98,0.0,0.0,80,0.00,,,0.00,VWS V14.01,2013-06-10 05:41:00,
2013-06-10 00:46:00,73.0,66.5,29.89,East,98,0.0,0.0,80,0.00,,,0.00,VWS V14.01,2013-06-10 05:46:00,
2013-06-10 00:51:00,72.8,66.3,29.89,East,98,0.0,0.0,80,0.00,,,0.00,VWS V14.01,2013-06-10 05:51:00,
2013-06-10 00:56:00,72.6,66.4,29.89,East,98,0.0,0.0,81,0.00,,,0.00,VWS V14.01,2013-06-10 05:56:00,
2013-06-10 01:01:00,72.6,66.4,29.89,East,98,0.0,0.0,81,0.00,,,0.00,VWS V14.01,2013-06-10 06:01:00,
2013-06-10 01:06:00,72.4,66.6,29.89,East,98,0.0,0.0,82,0.00,,,0.00,VWS V14.01,2013-06-10 06:06:00,
2013-06-10 01:11:00,72.2,66.4,29.89,East,98,0.0,0.0,82,0.00,,,0.00,VWS V14.01,2013-06-10 06:11:00,
2013-06-10 01:16:00,72.1,66.3,29.89,East,98,0.0,0.0,82,0.00,,,0.00,VWS V14.01,2013-06-10 06:16:00,
2013-06-10 01:21:00,72.0,66.2,29.89,East,98,0.0,0.0,82,0.00,,,0.00,VWS V14.01,2013-06-10 06:21:00,
2013-06-10 01:26:00,71.9,66.1,29.89,East,98,0.0,0.0,82,0.00,,,0.00,VWS V14.01,2013-06-10 06:26:00,
2013-06-10 01:31:00,71.7,65.9,29.89,East,98,0.0,0.0,82,0.00,,,0.00,VWS V14.01,2013-06-10 06:31:00,
2013-06-10 01:36:00,71.6,66.2,29.89,East,98,0.0,0.0,83,0.00,,,0.00,VWS V14.01,2013-06-10 06:36:00,
2013-06-10 01:40:00,71.5,66.4,29.89,East,98,0.0,0.0,84,0.00,,,0.00,VWS V14.01,2013-06-10 06:40:00,
2013-06-10 01:45:00,71.5,66.4,29.89,East,98,0.0,0.0,84,0.00,,,0.00,VWS V14.01,2013-06-10 06:45:00,
2013-06-10 01:50:00,71.4,66.3,29.89,East,98,0.0,0.0,84,0.00,,,0.00,VWS V14.01,2013-06-10 06:50:00,
2013-06-10 01:55:00,71.3,66.2,29.89,East,98,0.0,0.0,84,0.00,,,0.00,VWS V14.01,2013-06-10 06:55:00,
2013-06-10 02:00:00,71.2,66.5,29.89,East,98,0.0,0.0,85,0.00,,,0.00,VWS V14.01,2013-06-10 07:00:00,
2013-06-10 02:05:00,71.0,66.3,29.89,East,98,0.0,0.0,85,0.00,,,0.00,VWS V14.01,2013-06-10 07:05:00,
2013-06-10 02:10:00,70.9,66.2,29.89,East,98,0.0,0.0,85,0.00,,,0.00,VWS V14.01,2013-06-10 07:10:00,
2013-06-10 02:15:00,70.8,66.4,29.88,East,98,0.0,0.0,86,0.00,,,0.00,VWS V14.01,2013-06-10 07:15:00,
2013-06-10 02:20:00,70.7,66.3,29.88,East,98,0.0,0.0,86,0.00,,,0.00,VWS V14.01,2013-06-10 07:20:00,
2013-06-10 02:25:00,70.7,66.3,29.88,East,98,0.0,0.0,86,0.00,,,0.00,VWS V14.01,2013-06-10 07:25:00,
2013-06-10 02:30:00,70.6,66.2,29.88,East,98,0.0,0.0,86,0.00,,,0.00,VWS V14.01,2013-06-10 07:30:00,
2013-06-10 02:35:00,70.6,66.2,29.88,East,98,0.0,0.0,86,0.00,,,0.00,VWS V14.01,2013-06-10 07:35:00,
2013-06-10 02:40:00,70.5,66.1,29.88,East,98,0.0,0.0,86,0.00,,,0.00,VWS V14.01,2013-06-10 07:40:00,
2013-06-10 02:45:00,70.5,66.1,29.88,SE,144,0.0,0.0,86,0.00,,,0.00,VWS V14.01,2013-06-10 07:45:00,
2013-06-10 02:50:00,70.5,66.4,29.88,SE,144,0.0,0.0,87,0.00,,,0.00,VWS V14.01,2013-06-10 07:50:00,
2013-06-10 02:55:00,70.5,66.4,29.88,SE,144,0.0,0.0,87,0.00,,,0.00,VWS V14.01,2013-06-10 07:55:00,
2013-06-10 03:00:00,70.5,66.4,29.88,SE,144,0.0,0.0,87,0.00,,,0.00,VWS V14.01,2013-06-10 08:00:00,
2013-06-10 03:05:00,70.4,66.3,29.88,SE,144,0.0,0.0,87,0.00,,,0.00,VWS V14.01,2013-06-10 08:05:00,
2013-06-10 03:10:00,70.4,66.3,29.88,SE,144,0.0,0.0,87,0.00,,,0.00,VWS V14.01,2013-06-10 08:10:00,
2013-06-10 03:15:00,70.3,65.9,29.88,SE,144,0.0,0.0,86,0.00,,,0.00,VWS V14.01,2013-06-10 08:15:00,
2013-06-10 03:20:00,70.2,65.8,29.89,SE,144,0.0,0.0,86,0.00,,,0.00,VWS V14.01,2013-06-10 08:20:00,
2013-06-10 03:25:00,70.1,66.1,29.89,South,169,0.0,0.0,87,0.00,,,0.00,VWS V14.01,2013-06-10 08:25:00,
2013-06-10 03:30:00,70.1,66.1,29.89,South,169,0.0,0.0,87,0.00,,,0.00,VWS V14.01,2013-06-10 08:30:00,
2013-06-10 03:35:00,70.0,66.0,29.88,South,169,0.0,0.0,87,0.00,,,0.00,VWS V14.01,2013-06-10 08:35:00,
2013-06-10 03:40:00,69.9,65.9,29.88,South,169,0.0,0.0,87,0.00,,,0.00,VWS V14.01,2013-06-10 08:40:00,
2013-06-10 03:45:00,69.9,65.9,29.89,South,169,0.0,0.0,87,0.00,,,0.00,VWS V14.01,2013-06-10 08:45:00,
2013-06-10 03:50:00,69.9,66.2,29.89,South,169,0.0,0.0,88,0.00,,,0.00,VWS V14.01,2013-06-10 08:50:00,
2013-06-10 03:55:00,69.8,66.1,29.89,SSE,154,0.0,0.0,88,0.00,,,0.00,VWS V14.01,2013-06-10 08:55:00,
2013-06-10 04:00:00,69.8,66.1,29.88,SSE,156,0.0,0.0,88,0.00,,,0.00,VWS V14.01,2013-06-10 09:00:00,
2013-06-10 04:05:00,69.8,66.4,29.88,SSE,157,0.0,0.0,89,0.00,,,0.00,VWS V14.01,2013-06-10 09:05:00,
2013-06-10 04:10:00,69.8,66.4,29.88,SSE,157,0.0,0.0,89,0.00,,,0.00,VWS V14.01,2013-06-10 09:10:00,
2013-06-10 04:15:00,69.9,66.5,29.88,SSE,157,0.0,0.0,89,0.00,,,0.00,VWS V14.01,2013-06-10 09:15:00,
2013-06-10 04:20:00,69.9,66.5,29.88,SSE,157,0.0,0.0,89,0.00,,,0.00,VWS V14.01,2013-06-10 09:20:00,
2013-06-10 04:25:00,69.9,66.5,29.88,SSE,157,0.0,0.0,89,0.00,,,0.00,VWS V14.01,2013-06-10 09:25:00,
2013-06-10 04:30:00,69.9,66.5,29.88,SSE,157,0.0,0.0,89,0.00,,,0.00,VWS V14.01,2013-06-10 09:30:00,
2013-06-10 04:35:00,69.9,66.5,29.88,SSE,157,0.0,0.0,89,0.00,,,0.00,VWS V14.01,2013-06-10 09:35:00,
2013-06-10 04:40:00,69.8,66.4,29.89,SSE,157,0.0,0.0,89,0.00,,,0.00,VWS V14.01,2013-06-10 09:40:00,
2013-06-10 04:45:00,69.7,66.0,29.89,SSE,157,0.0,0.0,88,0.00,,,0.00,VWS V14.01,2013-06-10 09:45:00,
2013-06-10 04:50:00,69.7,66.0,29.89,SSE,157,0.0,0.0,88,0.00,,,0.00,VWS V14.01,2013-06-10 09:50:00,
2013-06-10 04:55:00,69.5,65.8,29.89,SSE,157,0.0,0.0,88,0.00,,,0.00,VWS V14.01,2013-06-10 09:55:00,
2013-06-10 05:00:00,69.5,65.8,29.89,SSE,157,0.0,0.0,88,0.00,,,0.00,VWS V14.01,2013-06-10 10:00:00,
2013-06-10 05:05:00,69.3,65.6,29.89,SSE,157,0.0,0.0,88,0.00,,,0.00,VWS V14.01,2013-06-10 10:05:00,
2013-06-10 05:10:00,69.2,65.5,29.89,SSE,157,0.0,0.0,88,0.00,,,0.00,VWS V14.01,2013-06-10 10:10:00,
2013-06-10 05:15:00,69.1,65.4,29.89,SSE,157,0.0,0.0,88,0.00,,,0.00,VWS V14.01,2013-06-10 10:15:00,
2013-06-10 05:20:00,69.0,65.3,29.89,SSE,157,0.0,0.0,88,0.00,,,0.00,VWS V14.01,2013-06-10 10:20:00,
2013-06-10 05:25:00,68.9,65.5,29.89,SSE,157,0.0,0.0,89,0.00,,,0.00,VWS V14.01,2013-06-10 10:25:00,
2013-06-10 05:30:00,68.8,65.4,29.89,SSE,157,0.0,0.0,89,0.00,,,0.00,VWS V14.01,2013-06-10 10:30:00,
2013-06-10 05:35:00,68.7,65.3,29.89,SSE,157,0.0,0.0,89,0.00,,,0.00,VWS V14.01,2013-06-10 10:35:00,
2013-06-10 05:40:00,68.6,65.2,29.89,SSE,157,0.0,0.0,89,0.00,,,0.00,VWS V14.01,2013-06-10 10:40:00,
2013-06-10 05:45:00,68.5,65.1,29.89,SSE,157,0.0,0.0,89,0.00,,,0.00,VWS V14.01,2013-06-10 10:45:00,
2013-06-10 05:50:00,68.5,65.1,29.90,SSE,157,0.0,0.0,89,0.00,,,0.00,VWS V14.01,2013-06-10 10:50:00,
2013-06-10 05:55:00,68.4,65.4,29.90,SSE,157,0.0,0.0,90,0.00,,,0.00,VWS V14.01,2013-06-10 10:55:00,
2013-06-10 06:00:00,68.4,65.4,29.90,South,169,0.0,0.0,90,0.00,,,0.00,VWS V14.01,2013-06-10 11:00:00,
2013-06-10 06:05:00,68.4,65.4,29.90,SSE,163,0.0,0.0,90,0.00,,,0.00,VWS V14.01,2013-06-10 11:05:00,
2013-06-10 06:10:00,68.5,65.8,29.90,South,175,0.0,0.0,91,0.00,,,0.00,VWS V14.01,2013-06-10 11:10:00,
2013-06-10 06:15:00,68.6,65.9,29.90,South,169,0.0,0.0,91,0.00,,,0.00,VWS V14.01,2013-06-10 11:15:00,
2013-06-10 06:20:00,68.7,66.0,29.90,South,172,0.0,0.0,91,0.00,,,0.00,VWS V14.01,2013-06-10 11:20:00,
2013-06-10 06:25:00,68.7,66.0,29.90,South,172,0.0,0.0,91,0.00,,,0.00,VWS V14.01,2013-06-10 11:25:00,
2013-06-10 06:30:00,68.8,66.1,29.90,South,172,0.0,0.0,91,0.00,,,0.00,VWS V14.01,2013-06-10 11:30:00,
2013-06-10 06:35:00,68.9,66.2,29.90,SSE,158,0.0,0.0,91,0.00,,,0.00,VWS V14.01,2013-06-10 11:35:00,
2013-06-10 06:40:00,68.9,66.2,29.90,SW,219,0.0,0.0,91,0.00,,,0.00,VWS V14.01,2013-06-10 11:40:00,
2013-06-10 06:45:00,69.0,66.3,29.91,SSW,194,0.0,0.0,91,0.00,,,0.00,VWS V14.01,2013-06-10 11:45:00,
2013-06-10 06:50:00,69.1,66.4,29.91,SSW,194,0.0,0.0,91,0.00,,,0.00,VWS V14.01,2013-06-10 11:50:00,
2013-06-10 06:55:00,69.2,66.5,29.91,SSW,194,0.0,0.0,91,0.00,,,0.00,VWS V14.01,2013-06-10 11:55:00,
2013-06-10 07:00:00,69.2,66.5,29.91,SSW,194,0.0,0.0,91,0.00,,,0.00,VWS V14.01,2013-06-10 12:00:00,
2013-06-10 07:05:00,69.3,66.6,29.91,SE,139,0.0,0.0,91,0.00,,,0.00,VWS V14.01,2013-06-10 12:05:00,
2013-06-10 07:10:00,69.3,66.6,29.91,SE,139,0.0,0.0,91,0.00,,,0.00,VWS V14.01,2013-06-10 12:10:00,
2013-06-10 07:15:00,69.4,66.7,29.91,SE,134,0.0,0.0,91,0.00,,,0.00,VWS V14.01,2013-06-10 12:15:00,
2013-06-10 07:20:00,69.4,66.7,29.91,SE,134,0.0,0.0,91,0.00,,,0.00,VWS V14.01,2013-06-10 12:20:00,
2013-06-10 07:25:00,69.4,66.7,29.91,South,187,0.0,0.0,91,0.00,,,0.00,VWS V14.01,2013-06-10 12:25:00,
2013-06-10 07:30:00,69.4,66.7,29.91,SSW,205,5.0,6.0,91,0.00,,,0.00,VWS V14.01,2013-06-10 12:30:00,
2013-06-10 07:35:00,69.4,66.7,29.91,SSW,213,5.0,5.0,91,0.00,,,0.00,VWS V14.01,2013-06-10 12:35:00,
2013-06-10 07:40:00,69.4,66.7,29.91,West,263,0.0,3.0,91,0.00,,,0.00,VWS V14.01,2013-06-10 12:40:00,
2013-06-10 07:45:00,71.1,68.0,29.91,South,175,3.0,7.0,90,0.00,,,0.00,VWS V14.01,2013-06-10 12:45:00,
2013-06-10 07:50:00,71.6,68.2,29.91,South,179,1.0,3.0,89,0.00,,,0.00,VWS V14.01,2013-06-10 12:50:00,
2013-06-10 07:55:00,72.1,68.3,29.91,SSE,155,4.0,8.0,88,0.00,,,0.00,VWS V14.01,2013-06-10 12:55:00,
2013-06-10 08:00:00,72.6,68.5,29.91,SSW,199,3.0,6.0,87,0.00,,,0.00,VWS V14.01,2013-06-10 13:00:00,
2013-06-10 08:05:00,73.1,68.7,29.91,SSE,166,6.0,9.0,86,0.00,,,0.00,VWS V14.01,2013-06-10 13:05:00,
2013-06-10 08:10:00,73.7,68.9,29.91,South,186,3.0,4.0,85,0.00,,,0.00,VWS V14.01,2013-06-10 13:10:00,
2013-06-10 08:15:00,74.1,69.0,29.91,SSE,163,8.0,8.0,84,0.00,,,0.00,VWS V14.01,2013-06-10 13:15:00,
2013-06-10 08:20:00,74.8,68.9,29.91,SW,215,6.0,7.0,82,0.00,,,0.00,VWS V14.01,2013-06-10 13:20:00,
2013-06-10 08:25:00,75.4,69.5,29.91,South,169,7.0,9.0,82,0.00,,,0.00,VWS V14.01,2013-06-10 13:25:00,
2013-06-10 08:30:00,75.9,69.7,29.91,SSW,199,5.0,9.0,81,0.00,,,0.00,VWS V14.01,2013-06-10 13:30:00,
2013-06-10 08:35:00,76.3,70.1,29.91,South,186,4.0,6.0,81,0.00,,,0.00,VWS V14.01,2013-06-10 13:35:00,
2013-06-10 08:40:00,76.8,70.2,29.91,South,173,6.0,8.0,80,0.00,,,0.00,VWS V14.01,2013-06-10 13:40:00,
2013-06-10 08:45:00,77.3,70.3,29.91,South,176,8.0,9.0,79,0.00,,,0.00,VWS V14.01,2013-06-10 13:45:00,
2013-06-10 08:50:00,77.7,70.7,29.91,SSW,196,3.0,9.0,79,0.00,,,0.00,VWS V14.01,2013-06-10 13:50:00,
2013-06-10 08:55:00,78.2,70.8,29.91,SSW,198,6.0,6.0,78,0.00,,,0.00,VWS V14.01,2013-06-10 13:55:00,
2013-06-10 09:00:00,78.7,70.9,29.91,South,175,6.0,12.0,77,0.00,,,0.00,VWS V14.01,2013-06-10 14:00:00,
2013-06-10 09:05:00,79.3,71.1,29.91,South,174,3.0,12.0,76,0.00,,,0.00,VWS V14.01,2013-06-10 14:05:00,
2013-06-10 09:10:00,79.7,71.5,29.91,SSW,198,5.0,9.0,76,0.00,,,0.00,VWS V14.01,2013-06-10 14:10:00,
2013-06-10 09:15:00,80.3,71.3,29.91,SSW,213,7.0,9.0,74,0.00,,,0.00,VWS V14.01,2013-06-10 14:15:00,
2013-06-10 09:20:00,80.8,71.7,29.91,SSW,202,6.0,13.0,74,0.00,,,0.00,VWS V14.01,2013-06-10 14:20:00,
2013-06-10 09:25:00,81.3,71.8,29.91,SSW,211,13.0,13.0,73,0.00,,,0.00,VWS V14.01,2013-06-10 14:25:00,
2013-06-10 09:30:00,81.8,71.9,29.91,SW,226,5.0,8.0,72,0.00,,,0.00,VWS V14.01,2013-06-10 14:30:00,
2013-06-10 09:35:00,82.4,71.6,29.91,SSW,202,7.0,10.0,70,0.00,,,0.00,VWS V14.01,2013-06-10 14:35:00,
2013-06-10 09:40:00,82.9,72.1,29.91,SW,223,8.0,10.0,70,0.00,,,0.00,VWS V14.01,2013-06-10 14:40:00,
2013-06-10 09:45:00,83.4,72.2,29.91,SW,230,8.0,12.0,69,0.00,,,0.00,VWS V14.01,2013-06-10 14:45:00,
2013-06-10 09:50:00,83.8,71.7,29.91,SSW,196,9.0,15.0,67,0.00,,,0.00,VWS V14.01,2013-06-10 14:50:00,
2013-06-10 09:55:00,84.1,72.0,29.91,SW,229,10.0,13.0,67,0.00,,,0.00,VWS V14.01,2013-06-10 14:55:00,
2013-06-10 10:00:00,84.6,72.4,29.91,SSW,206,4.0,9.0,67,0.00,,,0.00,VWS V14.01,2013-06-10 15:00:00,
2013-06-10 10:05:00,85.2,72.6,29.91,SW,232,9.0,13.0,66,0.00,,,0.00,VWS V14.01,2013-06-10 15:05:00,
2013-06-10 10:10:00,85.7,72.1,29.91,South,186,8.0,9.0,64,0.00,,,0.00,VWS V14.01,2013-06-10 15:10:00,
2013-06-10 10:15:00,86.2,72.1,29.91,SSW,209,4.0,15.0,63,0.00,,,0.00,VWS V14.01,2013-06-10 15:15:00,
2013-06-10 10:20:00,86.4,71.8,29.92,West,262,6.0,16.0,62,0.00,,,0.00,VWS V14.01,2013-06-10 15:20:00,
2013-06-10 10:25:00,86.7,71.7,29.91,SW,229,8.0,15.0,61,0.00,,,0.00,VWS V14.01,2013-06-10 15:25:00,
2013-06-10 10:30:00,87.1,71.5,29.91,SW,236,4.0,9.0,60,0.00,,,0.00,VWS V14.01,2013-06-10 15:30:00,
2013-06-10 10:35:00,87.4,71.8,29.92,WSW,254,8.0,14.0,60,0.00,,,0.00,VWS V14.01,2013-06-10 15:35:00,
2013-06-10 10:40:00,87.7,71.1,29.92,West,275,8.0,13.0,58,0.00,,,0.00,VWS V14.01,2013-06-10 15:40:00,
2013-06-10 10:45:00,87.9,71.3,29.92,SSW,198,7.0,8.0,58,0.00,,,0.00,VWS V14.01,2013-06-10 15:45:00,
2013-06-10 10:50:00,88.2,71.1,29.92,SSW,196,7.0,10.0,57,0.00,,,0.00,VWS V14.01,2013-06-10 15:50:00,
2013-06-10 10:55:00,88.4,71.2,29.92,SW,217,12.0,12.0,57,0.00,,,0.00,VWS V14.01,2013-06-10 15:55:00,
2013-06-10 11:00:00,88.8,72.1,29.91,SSW,202,6.0,10.0,58,0.00,,,0.00,VWS V14.01,2013-06-10 16:00:00,
2013-06-10 11:05:00,89.3,72.1,29.92,SW,216,10.0,16.0,57,0.00,,,0.00,VWS V14.01,2013-06-10 16:05:00,
2013-06-10 11:10:00,89.8,71.5,29.92,SSW,198,5.0,14.0,55,0.00,,,0.00,VWS V14.01,2013-06-10 16:10:00,
2013-06-10 11:15:00,90.2,71.9,29.91,WSW,246,7.0,10.0,55,0.00,,,0.00,VWS V14.01,2013-06-10 16:15:00,
2013-06-10 11:20:00,90.5,71.6,29.91,SW,222,9.0,12.0,54,0.00,,,0.00,VWS V14.01,2013-06-10 16:20:00,
2013-06-10 11:25:00,90.6,72.2,29.91,SSW,204,4.0,8.0,55,0.00,,,0.00,VWS V14.01,2013-06-10 16:25:00,
2013-06-10 11:30:00,90.7,71.2,29.91,SSW,197,7.0,12.0,53,0.00,,,0.00,VWS V14.01,2013-06-10 16:30:00,
2013-06-10 11:35:00,90.9,72.0,29.91,SW,221,9.0,9.0,54,0.00,,,0.00,VWS V14.01,2013-06-10 16:35:00,
2013-06-10 11:40:00,91.3,72.9,29.91,SW,230,5.0,5.0,55,0.00,,,0.00,VWS V14.01,2013-06-10 16:40:00,
2013-06-10 11:45:00,91.5,71.4,29.91,SW,217,10.0,10.0,52,0.00,,,0.00,VWS V14.01,2013-06-10 16:45:00,
2013-06-10 11:50:00,91.6,72.6,29.91,SSW,199,6.0,7.0,54,0.00,,,0.00,VWS V14.01,2013-06-10 16:50:00,
2013-06-10 11:54:00,91.9,71.2,29.91,SW,219,6.0,8.0,51,0.00,,,0.00,VWS V14.01,2013-06-10 16:54:00,
2013-06-10 11:59:00,92.2,72.1,29.91,SW,232,5.0,10.0,52,0.00,,,0.00,VWS V14.01,2013-06-10 16:59:00,
2013-06-10 12:04:00,92.4,71.7,29.91,SW,232,2.0,6.0,51,0.00,,,0.00,VWS V14.01,2013-06-10 17:04:00,
2013-06-10 12:09:00,92.8,73.7,29.91,WSW,258,4.0,7.0,54,0.00,,,0.00,VWS V14.01,2013-06-10 17:09:00,
2013-06-10 12:14:00,93.1,70.5,29.90,SSE,158,5.0,10.0,48,0.00,,,0.00,VWS V14.01,2013-06-10 17:14:00,
2013-06-10 12:19:00,93.1,71.7,29.90,SSW,211,2.0,2.0,50,0.00,,,0.00,VWS V14.01,2013-06-10 17:19:00,
2013-06-10 12:24:00,93.2,71.8,29.90,SSW,213,7.0,11.0,50,0.00,,,0.00,VWS V14.01,2013-06-10 17:24:00,
2013-06-10 12:29:00,93.3,70.7,29.90,SSW,205,10.0,10.0,48,0.00,,,0.00,VWS V14.01,2013-06-10 17:29:00,
2013-06-10 12:34:00,93.2,68.7,29.90,SSE,158,3.0,6.0,45,0.00,,,0.00,VWS V14.01,2013-06-10 17:34:00,
2013-06-10 12:39:00,93.4,72.0,29.90,South,171,3.0,9.0,50,0.00,,,0.00,VWS V14.01,2013-06-10 17:39:00,
2013-06-10 12:44:00,93.8,71.8,29.90,SSE,167,2.0,4.0,49,0.00,,,0.00,VWS V14.01,2013-06-10 17:44:00,
2013-06-10 12:49:00,94.3,71.6,29.90,South,182,10.0,11.0,48,0.00,,,0.00,VWS V14.01,2013-06-10 17:49:00,
2013-06-10 12:54:00,94.4,69.8,29.90,South,189,9.0,9.0,45,0.00,,,0.00,VWS V14.01,2013-06-10 17:54:00,
2013-06-10 12:59:00,94.3,69.7,29.90,SSW,205,5.0,9.0,45,0.00,,,0.00,VWS V14.01,2013-06-10 17:59:00,
2013-06-10 13:04:00,94.4,69.8,29.90,South,180,4.0,8.0,45,0.00,,,0.00,VWS V14.01,2013-06-10 18:04:00,
2013-06-10 13:09:00,94.5,69.2,29.90,SW,228,2.0,4.0,44,0.00,,,0.00,VWS V14.01,2013-06-10 18:09:00,
2013-06-10 13:14:00,94.6,69.3,29.90,SSE,157,4.0,12.0,44,0.00,,,0.00,VWS V14.01,2013-06-10 18:14:00,
2013-06-10 13:19:00,94.6,68.0,29.90,SSE,167,6.0,7.0,42,0.00,,,0.00,VWS V14.01,2013-06-10 18:19:00,
2013-06-10 13:24:00,94.4,68.5,29.89,SW,223,10.0,10.0,43,0.00,,,0.00,VWS V14.01,2013-06-10 18:24:00,
2013-06-10 13:29:00,94.7,70.1,29.89,SSW,196,2.0,6.0,45,0.00,,,0.00,VWS V14.01,2013-06-10 18:29:00,
2013-06-10 13:34:00,95.1,68.4,29.89,SSW,193,4.0,5.0,42,0.00,,,0.00,VWS V14.01,2013-06-10 18:34:00,
2013-06-10 13:39:00,95.3,69.3,29.89,SSE,156,6.0,11.0,43,0.00,,,0.00,VWS V14.01,2013-06-10 18:39:00,
2013-06-10 13:44:00,95.4,67.3,29.88,SE,126,3.0,10.0,40,0.00,,,0.00,VWS V14.01,2013-06-10 18:44:00,
2013-06-10 13:49:00,95.3,66.4,29.89,SE,144,3.0,7.0,39,0.00,,,0.00,VWS V14.01,2013-06-10 18:49:00,
2013-06-10 13:54:00,95.1,65.5,29.89,SSE,148,1.0,3.0,38,0.00,,,0.00,VWS V14.01,2013-06-10 18:54:00,
2013-06-10 13:59:00,95.1,67.0,29.89,South,177,4.0,5.0,40,0.00,,,0.00,VWS V14.01,2013-06-10 18:59:00,
2013-06-10 14:04:00,95.4,66.5,29.89,SW,214,4.0,4.0,39,0.00,,,0.00,VWS V14.01,2013-06-10 19:04:00,
2013-06-10 14:09:00,95.9,66.2,29.88,SSW,205,10.0,12.0,38,0.00,,,0.00,VWS V14.01,2013-06-10 19:09:00,
2013-06-10 14:14:00,96.1,66.4,29.88,SSW,211,5.0,9.0,38,0.00,,,0.00,VWS V14.01,2013-06-10 19:14:00,
2013-06-10 14:19:00,96.4,66.7,29.88,SW,224,8.0,10.0,38,0.00,,,0.00,VWS V14.01,2013-06-10 19:19:00,
2013-06-10 14:24:00,96.6,66.1,29.88,SSW,203,4.0,7.0,37,0.00,,,0.00,VWS V14.01,2013-06-10 19:24:00,
2013-06-10 14:29:00,96.8,67.0,29.88,SSW,211,3.0,4.0,38,0.00,,,0.00,VWS V14.01,2013-06-10 19:29:00,
2013-06-10 14:34:00,96.9,66.3,29.88,SSW,209,7.0,9.0,37,0.00,,,0.00,VWS V14.01,2013-06-10 19:34:00,
2013-06-10 14:39:00,97.1,70.2,29.88,SW,217,6.0,7.0,42,0.00,,,0.00,VWS V14.01,2013-06-10 19:39:00,
2013-06-10 14:44:00,97.2,66.6,29.88,West,268,10.0,16.0,37,0.00,,,0.00,VWS V14.01,2013-06-10 19:44:00,
2013-06-10 14:49:00,97.3,67.5,29.88,SSW,211,4.0,6.0,38,0.00,,,0.00,VWS V14.01,2013-06-10 19:49:00,
2013-06-10 14:54:00,97.5,66.9,29.88,SW,223,7.0,7.0,37,0.00,,,0.00,VWS V14.01,2013-06-10 19:54:00,
2013-06-10 14:59:00,97.6,67.7,29.88,South,181,4.0,5.0,38,0.00,,,0.00,VWS V14.01,2013-06-10 19:59:00,
2013-06-10 15:04:00,97.6,64.5,29.88,SSE,163,4.0,4.0,34,0.00,,,0.00,VWS V14.01,2013-06-10 20:04:00,
2013-06-10 15:09:00,97.8,67.1,29.88,SSW,204,0.0,0.0,37,0.00,,,0.00,VWS V14.01,2013-06-10 20:09:00,
2013-06-10 15:14:00,97.7,67.8,29.88,SSW,197,6.0,8.0,38,0.00,,,0.00,VWS V14.01,2013-06-10 20:14:00,
2013-06-10 15:19:00,97.7,67.8,29.88,SW,217,7.0,7.0,38,0.00,,,0.00,VWS V14.01,2013-06-10 20:19:00,
2013-06-10 15:24:00,97.8,67.1,29.87,SSE,148,5.0,7.0,37,0.00,,,0.00,VWS V14.01,2013-06-10 20:24:00,
2013-06-10 15:29:00,97.7,62.0,29.87,South,182,4.0,4.0,31,0.00,,,0.00,VWS V14.01,2013-06-10 20:29:00,
2013-06-10 15:34:00,97.6,61.9,29.87,South,180,5.0,5.0,31,0.00,,,0.00,VWS V14.01,2013-06-10 20:34:00,
2013-06-10 15:39:00,97.6,64.5,29.87,South,174,4.0,4.0,34,0.00,,,0.00,VWS V14.01,2013-06-10 20:39:00,
2013-06-10 15:44:00,97.8,63.0,29.87,SSW,200,2.0,4.0,32,0.00,,,0.00,VWS V14.01,2013-06-10 20:44:00,
2013-06-10 15:49:00,98.1,64.1,29.87,SSW,207,3.0,4.0,33,0.00,,,0.00,VWS V14.01,2013-06-10 20:49:00,
2013-06-10 15:54:00,98.5,61.7,29.87,South,188,4.0,6.0,30,0.00,,,0.00,VWS V14.01,2013-06-10 20:54:00,
2013-06-10 15:59:00,98.3,61.6,29.87,South,173,1.0,2.0,30,0.00,,,0.00,VWS V14.01,2013-06-10 20:59:00,
2013-06-10 16:04:00,98.4,65.2,29.87,SSW,211,3.0,6.0,34,0.00,,,0.00,VWS V14.01,2013-06-10 21:04:00,
2013-06-10 16:09:00,98.6,63.7,29.87,SSW,195,4.0,4.0,32,0.00,,,0.00,VWS V14.01,2013-06-10 21:09:00,
2013-06-10 16:14:00,98.8,62.9,29.87,SW,221,0.0,0.0,31,0.00,,,0.00,VWS V14.01,2013-06-10 21:14:00,
2013-06-10 16:19:00,99.0,64.9,29.87,SSW,209,4.0,4.0,33,0.00,,,0.00,VWS V14.01,2013-06-10 21:19:00,
2013-06-10 16:24:00,99.2,64.2,29.86,SSE,161,2.0,4.0,32,0.00,,,0.00,VWS V14.01,2013-06-10 21:24:00,
2013-06-10 16:29:00,99.1,61.3,29.86,SE,130,4.0,4.0,29,0.00,,,0.00,VWS V14.01,2013-06-10 21:29:00,
2013-06-10 16:34:00,99.0,62.2,29.86,SSW,211,5.0,5.0,30,0.00,,,0.00,VWS V14.01,2013-06-10 21:34:00,
2013-06-10 16:39:00,98.9,62.1,29.86,South,181,4.0,4.0,30,0.00,,,0.00,VWS V14.01,2013-06-10 21:39:00,
2013-06-10 16:44:00,98.9,62.1,29.86,South,183,4.0,5.0,30,0.00,,,0.00,VWS V14.01,2013-06-10 21:44:00,
2013-06-10 16:49:00,98.8,62.0,29.86,South,184,4.0,5.0,30,0.00,,,0.00,VWS V14.01,2013-06-10 21:49:00,
2013-06-10 16:54:00,98.6,61.8,29.86,South,181,2.0,4.0,30,0.00,,,0.00,VWS V14.01,2013-06-10 21:54:00,
2013-06-10 16:59:00,98.5,62.7,29.85,South,172,5.0,5.0,31,0.00,,,0.00,VWS V14.01,2013-06-10 21:59:00,
2013-06-10 17:04:00,98.5,62.7,29.86,SE,140,10.0,14.0,31,0.00,,,0.00,VWS V14.01,2013-06-10 22:04:00,
2013-06-10 17:09:00,98.5,60.8,29.85,South,169,2.0,3.0,29,0.00,,,0.00,VWS V14.01,2013-06-10 22:09:00,
2013-06-10 17:14:00,98.4,60.7,29.85,South,181,3.0,7.0,29,0.00,,,0.00,VWS V14.01,2013-06-10 22:14:00,
2013-06-10 17:19:00,98.4,62.6,29.85,SSE,154,4.0,4.0,31,0.00,,,0.00,VWS V14.01,2013-06-10 22:19:00,
2013-06-10 17:24:00,98.4,63.5,29.85,ESE,115,2.0,2.0,32,0.00,,,0.00,VWS V14.01,2013-06-10 22:24:00,
2013-06-10 17:29:00,98.4,60.7,29.85,South,188,5.0,5.0,29,0.00,,,0.00,VWS V14.01,2013-06-10 22:29:00,
2013-06-10 17:34:00,98.2,60.5,29.85,SSW,204,6.0,9.0,29,0.00,,,0.00,VWS V14.01,2013-06-10 22:34:00,
2013-06-10 17:39:00,98.3,60.6,29.85,SSE,159,5.0,10.0,29,0.00,,,0.00,VWS V14.01,2013-06-10 22:39:00,
2013-06-10 17:44:00,98.3,59.6,29.85,SSW,194,3.0,11.0,28,0.00,,,0.00,VWS V14.01,2013-06-10 22:44:00,
2013-06-10 17:49:00,98.3,60.6,29.84,SSE,159,2.0,7.0,29,0.00,,,0.00,VWS V14.01,2013-06-10 22:49:00,
2013-06-10 17:54:00,98.4,60.7,29.84,SSE,167,3.0,7.0,29,0.00,,,0.00,VWS V14.01,2013-06-10 22:54:00,
2013-06-10 17:59:00,98.5,59.8,29.84,SSE,157,7.0,9.0,28,0.00,,,0.00,VWS V14.01,2013-06-10 22:59:00,
2013-06-10 18:04:00,98.3,58.6,29.84,East,82,3.0,11.0,27,0.00,,,0.00,VWS V14.01,2013-06-10 23:04:00,
2013-06-10 18:09:00,98.2,58.5,29.84,SE,138,5.0,9.0,27,0.00,,,0.00,VWS V14.01,2013-06-10 23:09:00,
2013-06-10 18:14:00,98.1,59.5,29.84,SE,144,9.0,12.0,28,0.00,,,0.00,VWS V14.01,2013-06-10 23:14:00,
2013-06-10 18:19:00,97.9,59.3,29.84,SSE,160,3.0,9.0,28,0.00,,,0.00,VWS V14.01,2013-06-10 23:19:00,
2013-06-10 18:24:00,97.7,59.1,29.84,ESE,119,7.0,8.0,28,0.00,,,0.00,VWS V14.01,2013-06-10 23:24:00,
2013-06-10 18:29:00,97.6,58.0,29.84,ESE,117,5.0,11.0,27,0.00,,,0.00,VWS V14.01,2013-06-10 23:29:00,
2013-06-10 18:34:00,97.5,59.0,29.84,SE,139,9.0,11.0,28,0.00,,,0.00,VWS V14.01,2013-06-10 23:34:00,
2013-06-10 18:39:00,97.4,59.8,29.84,SE,136,3.0,10.0,29,0.00,,,0.00,VWS V14.01,2013-06-10 23:39:00,
2013-06-10 18:44:00,97.1,58.6,29.84,SSE,159,9.0,10.0,28,0.00,,,0.00,VWS V14.01,2013-06-10 23:44:00,
2013-06-10 18:49:00,96.9,58.4,29.84,SE,138,9.0,10.0,28,0.00,,,0.00,VWS V14.01,2013-06-10 23:49:00,
2013-06-10 18:54:00,96.6,58.2,29.84,SSE,161,2.0,8.0,28,0.00,,,0.00,VWS V14.01,2013-06-10 23:54:00,
2013-06-10 18:59:00,96.5,59.1,29.84,SSE,160,5.0,6.0,29,0.00,,,0.00,VWS V14.01,2013-06-10 23:59:00,
2013-06-10 19:04:00,96.2,60.7,29.84,ESE,119,5.0,12.0,31,0.00,,,0.00,VWS V14.01,2013-06-11 00:04:00,
2013-06-10 19:09:00,95.9,61.3,29.84,ESE,111,4.0,13.0,32,0.00,,,0.00,VWS V14.01,2013-06-11 00:09:00,
2013-06-10 19:14:00,95.7,62.0,29.84,South,171,6.0,12.0,33,0.00,,,0.00,VWS V14.01,2013-06-11 00:14:00,
2013-06-10 19:19:00,95.2,61.6,29.84,SE,137,7.0,14.0,33,0.00,,,0.00,VWS V14.01,2013-06-11 00:19:00,
2013-06-10 19:24:00,94.9,63.0,29.84,SSE,151,4.0,11.0,35,0.00,,,0.00,VWS V14.01,2013-06-11 00:24:00,
2013-06-10 19:29:00,94.8,62.1,29.84,South,171,5.0,14.0,34,0.00,,,0.00,VWS V14.01,2013-06-11 00:29:00,
2013-06-10 19:34:00,94.6,61.9,29.85,SSE,165,5.0,8.0,34,0.00,,,0.00,VWS V14.01,2013-06-11 00:34:00,
2013-06-10 19:39:00,94.4,62.5,29.85,SE,132,5.0,9.0,35,0.00,,,0.00,VWS V14.01,2013-06-11 00:39:00,
2013-06-10 19:44:00,94.2,61.6,29.85,ESE,111,4.0,9.0,34,0.00,,,0.00,VWS V14.01,2013-06-11 00:44:00,
2013-06-10 19:49:00,94.0,61.4,29.85,SSE,159,4.0,9.0,34,0.00,,,0.00,VWS V14.01,2013-06-11 00:49:00,
2013-06-10 19:54:00,93.7,61.1,29.85,SE,134,6.0,10.0,34,0.00,,,0.00,VWS V14.01,2013-06-11 00:54:00,
2013-06-10 19:59:00,93.3,61.6,29.85,SSE,147,5.0,10.0,35,0.00,,,0.00,VWS V14.01,2013-06-11 00:59:00,
2013-06-10 20:04:00,93.1,62.2,29.85,East,94,3.0,9.0,36,0.00,,,0.00,VWS V14.01,2013-06-11 01:04:00,
2013-06-10 20:09:00,92.9,62.0,29.85,SE,142,3.0,10.0,36,0.00,,,0.00,VWS V14.01,2013-06-11 01:09:00,
2013-06-10 20:14:00,92.6,62.5,29.85,SE,132,2.0,8.0,37,0.00,,,0.00,VWS V14.01,2013-06-11 01:14:00,
2013-06-10 20:19:00,92.3,63.0,29.85,SE,140,2.0,6.0,38,0.00,,,0.00,VWS V14.01,2013-06-11 01:19:00,
2013-06-10 20:24:00,91.8,63.3,29.85,SE,146,6.0,7.0,39,0.00,,,0.00,VWS V14.01,2013-06-11 01:24:00,
2013-06-10 20:29:00,91.4,63.0,29.85,SSE,162,2.0,7.0,39,0.00,,,0.00,VWS V14.01,2013-06-11 01:29:00,
2013-06-10 20:34:00,91.1,63.4,29.85,SE,142,2.0,7.0,40,0.00,,,0.00,VWS V14.01,2013-06-11 01:34:00,
2013-06-10 20:39:00,90.8,63.2,29.85,SE,132,1.0,5.0,40,0.00,,,0.00,VWS V14.01,2013-06-11 01:39:00,
2013-06-10 20:44:00,90.4,63.5,29.85,SE,146,3.0,3.0,41,0.00,,,0.00,VWS V14.01,2013-06-11 01:44:00,
2013-06-10 20:49:00,90.1,63.9,29.85,SE,136,3.0,5.0,42,0.00,,,0.00,VWS V14.01,2013-06-11 01:49:00,
2013-06-10 20:54:00,89.8,63.7,29.85,ESE,123,4.0,5.0,42,0.00,,,0.00,VWS V14.01,2013-06-11 01:54:00,
2013-06-10 20:59:00,89.4,64.0,29.85,SE,136,2.0,3.0,43,0.00,,,0.00,VWS V14.01,2013-06-11 01:59:00,
2013-06-10 21:04:00,89.2,63.8,29.85,SE,125,1.0,4.0,43,0.00,,,0.00,VWS V14.01,2013-06-11 02:04:00,
2013-06-10 21:09:00,88.9,64.2,29.85,ESE,117,3.0,4.0,44,0.00,,,0.00,VWS V14.01,2013-06-11 02:09:00,
2013-06-10 21:14:00,88.6,63.9,29.85,ESE,113,1.0,4.0,44,0.00,,,0.00,VWS V14.01,2013-06-11 02:14:00,
2013-06-10 21:19:00,88.4,64.4,29.85,South,184,3.0,3.0,45,0.00,,,0.00,VWS V14.01,2013-06-11 02:19:00,
2013-06-10 21:24:00,88.2,64.2,29.85,SSE,153,1.0,3.0,45,0.00,,,0.00,VWS V14.01,2013-06-11 02:24:00,
2013-06-10 21:29:00,88.1,64.1,29.85,SE,141,1.0,3.0,45,0.00,,,0.00,VWS V14.01,2013-06-11 02:29:00,
2013-06-10 21:34:00,87.7,64.4,29.85,SSE,155,2.0,3.0,46,0.00,,,0.00,VWS V14.01,2013-06-11 02:34:00,
2013-06-10 21:39:00,87.5,64.2,29.85,SE,132,1.0,4.0,46,0.00,,,0.00,VWS V14.01,2013-06-11 02:39:00,
2013-06-10 21:44:00,87.4,64.7,29.85,South,171,3.0,3.0,47,0.00,,,0.00,VWS V14.01,2013-06-11 02:44:00,
2013-06-10 21:49:00,87.1,64.4,29.85,SE,146,1.0,4.0,47,0.00,,,0.00,VWS V14.01,2013-06-11 02:49:00,
2013-06-10 21:54:00,86.9,64.3,29.86,SE,143,1.0,4.0,47,0.00,,,0.00,VWS V14.01,2013-06-11 02:54:00,
2013-06-10 21:59:00,86.7,64.7,29.86,SE,126,1.0,2.0,48,0.00,,,0.00,VWS V14.01,2013-06-11 02:59:00,
2013-06-10 22:04:00,86.6,65.2,29.87,SE,134,1.0,5.0,49,0.00,,,0.00,VWS V14.01,2013-06-11 03:04:00,
2013-06-10 22:09:00,86.4,65.0,29.87,ESE,119,2.0,4.0,49,0.00,,,0.00,VWS V14.01,2013-06-11 03:09:00,
2013-06-10 22:14:00,86.3,64.9,29.87,ESE,107,2.0,4.0,49,0.00,,,0.00,VWS V14.01,2013-06-11 03:14:00,
2013-06-10 22:19:00,86.1,65.3,29.87,ESE,110,4.0,4.0,50,0.00,,,0.00,VWS V14.01,2013-06-11 03:19:00,
2013-06-10 22:24:00,85.8,66.2,29.88,ESE,111,3.0,5.0,52,0.00,,,0.00,VWS V14.01,2013-06-11 03:24:00,
2013-06-10 22:29:00,85.6,66.5,29.88,ESE,102,4.0,8.0,53,0.00,,,0.00,VWS V14.01,2013-06-11 03:29:00,
2013-06-10 22:34:00,85.3,65.7,29.88,SE,136,3.0,8.0,52,0.00,,,0.00,VWS V14.01,2013-06-11 03:34:00,
2013-06-10 22:39:00,85.2,65.1,29.88,ESE,115,3.0,6.0,51,0.00,,,0.00,VWS V14.01,2013-06-11 03:39:00,
2013-06-10 22:44:00,85.1,64.4,29.89,ESE,110,4.0,7.0,50,0.00,,,0.00,VWS V14.01,2013-06-11 03:44:00,
2013-06-10 22:49:00,85.1,64.4,29.89,East,99,6.0,11.0,50,0.00,,,0.00,VWS V14.01,2013-06-11 03:49:00,
2013-06-10 22:54:00,85.1,64.4,29.89,SE,138,8.0,11.0,50,0.00,,,0.00,VWS V14.01,2013-06-11 03:54:00,
2013-06-10 22:59:00,85.1,64.4,29.89,SE,128,4.0,11.0,50,0.00,,,0.00,VWS V14.01,2013-06-11 03:59:00,
2013-06-10 23:01:00,85.1,64.4,29.89,South,181,3.0,8.0,50,0.00,,,0.00,VWS V14.01,2013-06-11 04:01:00,
2013-06-10 23:06:00,85.0,64.9,29.90,East,86,5.0,7.0,51,0.00,,,0.00,VWS V14.01,2013-06-11 04:06:00,
2013-06-10 23:11:00,84.9,64.8,29.90,ESE,109,2.0,11.0,51,0.00,,,0.00,VWS V14.01,2013-06-11 04:11:00,
2013-06-10 23:17:00,84.8,65.2,29.90,SE,134,6.0,7.0,52,0.00,,,0.00,VWS V14.01,2013-06-11 04:17:00,
2013-06-10 23:22:00,84.7,65.1,29.90,SE,130,4.0,9.0,52,0.00,,,0.00,VWS V14.01,2013-06-11 04:22:00,
2013-06-10 23:27:00,84.6,65.6,29.90,SSE,155,3.0,7.0,53,0.00,,,0.00,VWS V14.01,2013-06-11 04:27:00,
2013-06-10 23:32:00,84.5,65.5,29.90,SE,131,3.0,7.0,53,0.00,,,0.00,VWS V14.01,2013-06-11 04:32:00,
2013-06-10 23:37:00,84.3,65.9,29.90,South,173,3.0,9.0,54,0.00,,,0.00,VWS V14.01,2013-06-11 04:37:00,
2013-06-10 23:42:00,84.2,65.8,29.90,SE,137,1.0,7.0,54,0.00,,,0.00,VWS V14.01,2013-06-11 04:42:00,
2013-06-10 23:47:00,84.1,65.7,29.90,South,178,2.0,8.0,54,0.00,,,0.00,VWS V14.01,2013-06-11 04:47:00,
2013-06-10 23:52:00,84.0,65.6,29.90,ESE,112,2.0,8.0,54,0.00,,,0.00,VWS V14.01,2013-06-11 04:52:00,
2013-06-10 23:57:00,83.8,65.9,29.91,South,174,0.0,4.0,55,0.00,,,0.00,VWS V14.01,2013-06-11 04:57:00,